STARLINK AX (44280 NORAD) Tracking and Keplerian Element Data

This shows tracking and keplerian element data for the satellite.

Feedback or suggestion? Click here.




ElementValue
Catalog44280
NameSTARLINK AX
Epoch Orbit396
Epoch Day169.29378599
Epoch Year2019
RAAN58.5958
Inclination53.0047
Eccentricity0.0002198
Argument of Perigee113.3879
Mean Anonmoly246.7342
Mean Motion15.09735118
Decay Rate-0.00237655
L11 44280U 19029AX 19169.29378599 -.00237655 00000-0 -15039-1 0 9996
L22 44280 53.0047 58.5958 0002198 113.3879 246.7342 15.09735118 3967

Live tracking and technical data element details for STARLINK AX (NORAD 44280). STARLINK AX can be tracked NOW for your location showing map with azimuth and elevation plus other details from your city location.

Track the satellite on the map from your city or location and see movement details for azimuth, elevation, latitude, longitude, range, height, and movement on the map or in text.







IsCatalogInMostPopularTable: catalog: 44280, numindb: 36
Update: records affected: 1



GetName: 44280 STARLINK AX

Hit Count: updated at: Sun, 21 Jul 2019 21:30:56 GMT